Tracking 22124 objects as of 25-Jan-2021
HD Live streaming from Space Station
objects crossing your sky now

STARLINK-1202

Track STARLINK-1202 now!
10-day predictions
STARLINK-1202 is classified as:


NORAD ID: 45183
Int'l Code: 2020-012F
Perigee: 552.9 km
Apogee: 555.8 km
Inclination: 53.1 °
Period: 95.6 minutes
Semi major axis: 6925 km
RCS: Unknown
Launch date: February 17, 2020
Source: United States (US)
Launch site: AIR FORCE EASTERN TEST RANGE (AFETR)
aabbcc
Your satellite tracking list
Your tracking list is empty




NASA's NSSDC Master Catalog

Two Line Element Set (TLE):
1 45183U 20012F   21024.85194001  .00000424  00000-0  47364-4 0  9991
2 45183  53.0581 160.6230 0002058  57.5600 302.5587 15.06400994 53018
Source of the keplerian elements: AFSPC